sat.trackr.live / text

‹ back to catalog

STARLINK-35304

NORAD 66249 · 2025-245R

PAYLOAD ACTIVE UNKNOWN

§ Identity

Operator
Country
US
Launch date
2025-10-29
Launch site
AFETR
Launch vehicle
Mass (kg)
RCS (m²)

Purposes: comms

External: N2YO · Heavens-Above · Gunter

§ Orbital elements

Epoch: 2026-09-19T22:46:24.718944Z

Period
94.01 min
Inclination
53.1595°
Eccentricity
0.0001216
Mean motion
15.31699790 rev/d
Perigee alt
469.9 km
Apogee alt
471.6 km
Semi-major
6,848.9 km
B*
-5.2027e-4
RAAN
100.5010°
Arg perigee
92.4981°
Mean anomaly
267.6160°
Rev number
5,079

§ Raw data

STARLINK-353041 66249U 25245R   26262.94889721 -.00016474  00000+0 -52027-3 0  99932 66249  53.1595 100.5010 0001216  92.4981 267.6160 15.31699790 50796

JSON: /api/v1/satellites/66249 · /tle

For live sub-satellite position, see the globe view (requires WebGL).

§ Visibility from observer

Set your observer location to see the next 7 days of passes ≥ 10°. The values pass through the URL so the page stays shareable.

No JS? Fill the form by hand. The geolocation button needs JavaScript.